Monterey, CA

8:51 PM PST on February 08, 2016 (GMT -0800)
Monterey Peninsula

Weather History for KMRY - January, 2013

Change the Weather History Date:

Tuesday, January 29, 2013

  Actual Average Record
Temperature  
Mean Temperature 48 °F 52 °F  
Max Temperature 54 °F 60 °F 73 °F (2009)
Min Temperature 41 °F 43 °F 32 °F (2002)
Degree Days  
Heating Degree Days 17    
Month to date heating degree days 438  
Since 1 July heating degree days 1796  
Cooling Degree Days 0    
Month to date cooling degree days 0  
Year to date cooling degree days 0  
Moisture  
Dew Point 43 °F    
Average Humidity 81    
Maximum Humidity 93    
Minimum Humidity 68    
Precipitation  
Precipitation 0.00 in - - ()
Month to date precipitation 0.81  
Year to date precipitation 0.81  
Since 1 July precipitation 9.05  
Sea Level Pressure  
Sea Level Pressure 30.34 in    
Wind  
Wind Speed 5 mph (SW)    
Max Wind Speed 13 mph    
Max Gust Speed 16 mph    
Visibility 10 miles    
Events      
T = Trace of Precipitation, MM = Missing Value Source: NWS Daily Summary

Daily Weather History Graph

Daily Weather History Graph

Search for Another Location

Airport or City:

Trip Planner

Search our weather history database for the weather conditions in past years. The results will help you decide how hot, cold, wet, or windy it might be!

Date:

Astronomy

Jan. 29, 2013 Rise Set
Actual Time 7:11 AM PST 5:30 PM PST
Civil Twilight 6:43 AM PST 5:57 PM PST
Nautical Twilight 6:12 AM PST 6:28 PM PST
Astronomical Twilight 5:42 AM PST 6:59 PM PST
Moon 8:25 PM PST (1/29) 8:16 AM PST (1/29)
Length of Visible Light 11h 13m
Length of Day
10h 19m
Waning Gibbous, 93% of the Moon is Illuminated
Jan 29
Waning Gibbous
Feb 3
Last Quarter
Feb 9
New
Feb 17
First Quarter
Feb 25
Full

Hourly Weather History & Observations

Time (PST) Temp. Windchill Dew Point Humidity Pressure Visibility Wind Dir Wind Speed Gust Speed Precip Events Conditions
12:54 AM 48.9 °F - 43.0 °F 80% 30.35 in 10.0 mi Variable 5.8 mph - N/A   Partly Cloudy
1:34 AM 48.2 °F - 42.8 °F 82% 30.31 in 10.0 mi SW 5.8 mph - N/A   Mostly Cloudy
1:54 AM 48.0 °F - 43.0 °F 83% 30.35 in 10.0 mi WSW 3.5 mph - N/A   Mostly Cloudy
2:15 AM 48.2 °F - 42.8 °F 82% 30.32 in 10.0 mi WSW 8.1 mph - N/A   Scattered Clouds
2:54 AM 48.9 °F - 42.1 °F 77% 30.36 in 10.0 mi West 5.8 mph - N/A   Scattered Clouds
3:54 AM 48.0 °F - 42.1 °F 80% 30.36 in 10.0 mi SW 3.5 mph - N/A   Scattered Clouds
4:01 AM 48.2 °F - 42.8 °F 82% 30.31 in 10.0 mi Calm Calm - N/A   Mostly Cloudy
4:27 AM 44.6 °F - 41.0 °F 87% 30.31 in 10.0 mi Calm Calm - N/A   Scattered Clouds
4:54 AM 45.0 °F - 41.0 °F 86% 30.35 in 10.0 mi Calm Calm - N/A   Clear
5:35 AM 42.8 °F 41.1 °F 39.2 °F 87% 30.32 in 10.0 mi East 3.5 mph - N/A   Mostly Cloudy
5:54 AM 43.0 °F - 39.9 °F 89% 30.36 in 10.0 mi Calm Calm - N/A   Scattered Clouds
6:20 AM 42.8 °F - 39.2 °F 87% 30.34 in 10.0 mi Calm Calm - N/A   Mostly Cloudy
6:30 AM 42.8 °F 40.1 °F 39.2 °F 87% 30.34 in 10.0 mi ESE 4.6 mph - N/A   Scattered Clouds
6:54 AM 42.1 °F 40.2 °F 39.0 °F 89% 30.38 in 10.0 mi SE 3.5 mph - N/A   Clear
7:54 AM 43.0 °F 40.3 °F 39.9 °F 89% 30.39 in 10.0 mi East 4.6 mph - N/A   Clear
8:54 AM 46.9 °F - 43.0 °F 86% 30.39 in 10.0 mi Calm Calm - N/A   Partly Cloudy
9:54 AM 51.1 °F - 42.1 °F 71% 30.40 in 10.0 mi West 3.5 mph - N/A   Clear
10:54 AM 50.0 °F - 42.1 °F 74% 30.40 in 10.0 mi Variable 4.6 mph - N/A   Clear
11:54 AM 51.1 °F - 41.0 °F 68% 30.38 in 10.0 mi West 6.9 mph - N/A   Clear
12:54 PM 52.0 °F - 43.0 °F 71% 30.35 in 10.0 mi West 6.9 mph - N/A   Clear
1:54 PM 53.1 °F - 44.1 °F 71% 30.33 in 10.0 mi WNW 8.1 mph - N/A   Clear
2:54 PM 52.0 °F - 45.0 °F 77% 30.32 in 10.0 mi West 10.4 mph - N/A   Scattered Clouds
3:54 PM 52.0 °F - 45.0 °F 77% 30.33 in 10.0 mi West 10.4 mph - N/A   Clear
4:54 PM 52.0 °F - 45.0 °F 77% 30.33 in 10.0 mi West 10.4 mph - N/A   Clear
5:29 PM 51.8 °F - 46.4 °F 82% 30.29 in 9.0 mi SW 4.6 mph - N/A   Mostly Cloudy
5:49 PM 51.8 °F - 46.4 °F 82% 30.28 in 9.0 mi South 4.6 mph - N/A   Scattered Clouds
5:54 PM 50.0 °F - 46.0 °F 86% 30.32 in 10.0 mi South 4.6 mph - N/A   Scattered Clouds
5:58 PM 50.0 °F - 46.4 °F 87% 30.29 in 10.0 mi South 4.6 mph - N/A   Mostly Cloudy
6:10 PM 50.0 °F - 44.6 °F 82% 30.28 in 10.0 mi SSW 3.5 mph - N/A   Scattered Clouds
6:54 PM 50.0 °F - 46.0 °F 86% 30.33 in 9.0 mi South 3.5 mph - N/A   Scattered Clouds
7:54 PM 48.0 °F - 45.0 °F 89% 30.34 in 9.0 mi SSW 3.5 mph - N/A   Clear
8:26 PM 50.0 °F - 46.4 °F 87% 30.30 in 8.0 mi SSW 3.5 mph - N/A   Mostly Cloudy
8:37 PM 50.0 °F - 46.4 °F 87% 30.31 in 8.0 mi Calm Calm - N/A   Scattered Clouds
8:54 PM 46.0 °F - 44.1 °F 93% 30.35 in 9.0 mi Calm Calm - N/A   Clear
9:54 PM 45.0 °F 41.8 °F 42.1 °F 90% 30.34 in 10.0 mi East 5.8 mph - N/A   Clear
10:54 PM 44.1 °F 40.8 °F 41.0 °F 89% 30.33 in 10.0 mi East 5.8 mph - N/A   Clear
11:54 PM 45.0 °F 42.6 °F 39.9 °F 82% 30.32 in 10.0 mi East 4.6 mph - N/A   Clear